Location: Carnières
(50.1682°N, 3.3474°E)
Time: 03:00:47
(UTC+00:00)

SL-4 R/B - Pass Details

Date: 23 May 2024
Orbit: 412 x 600 km, 51.6° (Epoch: 21 June)

Event Time Altitude Azimuth Distance (km) Brightness Sun altitude
Exits shadow 02:47:10 - 198° (SSW) 1,996 4.3 -8.4°
Reaches altitude 10° 02:47:31 10° 196° (SSW) 1,885 4.2 -8.4°
Maximum altitude 02:51:05 25° 140° (SE) 1,192 3.7 -8.0°
Drops below altitude 10° 02:54:46 10° 85° (E) 1,945 5.6 -7.5°
Sets 02:57:22 0° 72° (ENE) 2,859 6.9 -7.3°
